Location: Borealis Mine
(38.3824°N, 118.7610°W)
Time: 18:15:13
(UTC+00:00)

IRIDIUM 114 - Pass Details

Date: 18 September 2020
Orbit: 776 x 779 km, 86.4° (Epoch: 19 October)

Event Time Altitude Azimuth Distance (km) Brightness Sun altitude
Rises 12:11:35 0° 355° (N) 3,267 7.7 -17.8°
Reaches altitude 10° 12:13:57 10° 355° (N) 2,334 6.9 -17.4°
Maximum altitude 12:19:10 77° 269° (W) 800 4.2 -16.4°
Drops below altitude 10° 12:24:20 10° 185° (S) 2,317 6.6 -15.4°
Sets 12:26:40 0° 183° (S) 3,239 7.4 -15.0°
